Regional Weather Roundup
Issued by NWS

Home | Current Version | Previous Version | Graphics & Text | Print | Product List | Glossary On
Versions: 1 2 3 4 5 6 7 8 9 10 11 12 13 14 15 16 17 18 19 20 21 22 23 24 25 26 27 28 29 30 31 32 33 34 35 36 37 38 39 40 41 42 43 44 45 46 47 48 49 50
000
ASUS45 KBOI 230010
RWRID

IDAHO REGIONAL WEATHER ROUNDUP
NATIONAL WEATHER SERVICE BOISE ID
600 PM MDT THU JUN 22 2017

NOTE: "FAIR" INDICATES FEW OR NO CLOUDS BELOW 12000 FEET
WITH NO SIGNIFICANT WEATHER AND/OR OBSTRUCTIONS TO VISIBILITY

IDZ012-014-230100-
SOUTHWEST IDAHO


CITY           SKY/WX    TMP DP  RH WIND       PRES   REMARKS
BOISE          SUNNY     82  28  14 NW18G26   30.06F
CALDWELL       SUNNY     81  32  17 NW15      30.07F
MOUNTAIN HOME  SUNNY     82  20  10 NW21G30   30.05S
$$

IDZ016-017-230100-
SOUTHCENTRAL IDAHO


CITY           SKY/WX    TMP DP  RH WIND       PRES   REMARKS
BURLEY         SUNNY     76  30  18 W14G25    30.04F
JEROME         SUNNY     80  21  11 W22G29    30.05F
TWIN FALLS     SUNNY     79  21  11 W23G30    30.07F
$$

IDZ019>023-230100-
SOUTHEAST IDAHO


CITY           SKY/WX    TMP DP  RH WIND       PRES   REMARKS
IDAHO FALLS    SUNNY     77  40  26 S13G22    30.06F
POCATELLO      SUNNY     78  30  17 SW20      30.06F
REXBURG        SUNNY     75  38  26 SW13      30.06F
$$

IDZ006-010-011-018-031-032-230100-
CENTRAL IDAHO MOUNTAINS


CITY           SKY/WX    TMP DP  RH WIND       PRES   REMARKS
MCCALL         SUNNY     68  22  17 N10       30.19S
HAILEY         SUNNY     77  41  27 S6        30.07F
STANLEY          N/A     71  24  17 N14G21    30.19R
SALMON         SUNNY     75  28  17 NW7G17    30.08S
CHALLIS        SUNNY     76  29  17 N14G20    30.08S
$$

IDZ002-004-006-007-026-230100-
NORTHERN IDAHO


CITY           SKY/WX    TMP DP  RH WIND       PRES   REMARKS
LEWISTON       SUNNY     79  31  17 NW8G18    30.17S
LOWELL           N/A     76  41  28 SW5       30.16S
COEUR D`ALENE  SUNNY     72  35  25 SW5       30.20R
MULLAN PASS    SUNNY     57  27  31 VRB5      30.29R
$$



USA.gov is the U.S. government's official web portal to all federal, state and local government web resources and services.